| time (UTC) | temp C | wind direction | speed KPH | gust KPH | rain 1hr cm | rain 24hr cm | rain mn cm | humidity % | barometer mb |
| 20260901090056 | 14 | 330 | 0.0 | 0.0 | 0.00 | 0.00 | 0.00 | 95 | 1017.0 |
| 20260901084556 | 14 | 330 | 0.0 | 0.0 | 0.00 | 0.00 | 0.00 | 95 | 1017.0 |
| 20260901083055 | 14 | 330 | 0.0 | 0.0 | 0.00 | 0.00 | 0.00 | 95 | 1016.9 |
| 20260901081555 | 14 | 330 | 0.0 | 0.0 | 0.00 | 0.00 | 0.00 | 95 | 1016.9 |
| 20260901080054 | 14 | 330 | 0.0 | 0.0 | 0.00 | 0.00 | 0.00 | 95 | 1017.1 |
| 20260901074551 | 14 | 330 | 0.0 | 0.0 | 0.00 | 0.00 | 0.00 | 95 | 1017.1 |
| 20260901073053 | 14 | 330 | 0.0 | 0.0 | 0.00 | 0.03 | 0.00 | 95 | 1016.9 |
| 20260901072248 | 14 | 330 | 0.0 | 0.0 | 0.00 | 0.03 | 0.00 | 95 | 1017.1 |
| 20260901070052 | 14 | 330 | 0.0 | 0.0 | 0.00 | 0.03 | 0.00 | 95 | 1017.2 |
| 20260901064550 | 14 | 330 | 0.0 | 0.0 | 0.00 | 0.03 | 0.00 | 95 | 1017.3 |
| 20260901063746 | 14 | 330 | 0.0 | 0.0 | 0.00 | 0.03 | 0.00 | 95 | 1017.5 |
| 20260901062254 | 14 | 330 | 0.0 | 0.0 | 0.00 | 0.03 | 0.00 | 95 | 1017.4 |
| 20260901060056 | 14 | 330 | 0.0 | 0.0 | 0.00 | 0.03 | 0.00 | 95 | 1017.8 |
| 20260901054547 | 14 | 330 | 0.0 | 0.0 | 0.00 | 0.03 | 0.00 | 94 | 1017.8 |
| 20260901053045 | 14 | 330 | 0.0 | 0.0 | 0.00 | 0.03 | 0.00 | 94 | 1018.0 |
| 20260901051547 | 14 | 330 | 0.0 | 0.0 | 0.00 | 0.03 | 0.00 | 94 | 1017.9 |
| 20260901050045 | 14 | 330 | 0.0 | 0.0 | 0.00 | 0.03 | 0.00 | 94 | 1018.1 |
| 20260901044542 | 13 | 330 | 0.0 | 0.0 | 0.00 | 0.03 | 0.00 | 94 | 1018.1 |
| 20260901043041 | 13 | 330 | 0.0 | 0.0 | 0.00 | 0.03 | 0.00 | 94 | 1017.9 |
| 20260901041540 | 13 | 330 | 0.0 | 0.0 | 0.00 | 0.03 | 0.00 | 93 | 1017.9 |
| 20260901040039 | 14 | 330 | 0.0 | 0.0 | 0.00 | 0.03 | 0.00 | 92 | 1017.7 |
| 20260901034540 | 14 | 330 | 0.0 | 0.0 | 0.00 | 0.03 | 0.03 | 92 | 1017.5 |
| 20260901033038 | 14 | 330 | 0.0 | 0.0 | 0.00 | 0.03 | 0.03 | 92 | 1017.7 |
| 20260901031536 | 14 | 330 | 0.0 | 0.0 | 0.00 | 0.03 | 0.03 | 92 | 1017.5 |
| 20260901030035 | 14 | 330 | 0.0 | 0.0 | 0.00 | 0.03 | 0.03 | 91 | 1017.7 |
| 20260901025237 | 14 | 330 | 0.0 | 0.0 | 0.00 | 0.03 | 0.03 | 91 | 1017.5 |
| 20260901023031 | 14 | 330 | 0.0 | 0.0 | 0.00 | 0.03 | 0.03 | 91 | 1017.7 |
| 20260901021529 | 15 | 330 | 0.0 | 0.0 | 0.00 | 0.03 | 0.03 | 90 | 1017.7 |
| 20260901020026 | 15 | 330 | 0.0 | 0.0 | 0.00 | 0.03 | 0.03 | 90 | 1017.8 |
| 20260901014527 | 15 | 330 | 0.0 | 0.0 | 0.00 | 0.03 | 0.03 | 89 | 1017.8 |
| 20260901013028 | 15 | 330 | 0.0 | 0.0 | 0.00 | 0.03 | 0.03 | 88 | 1017.7 |
| 20260901011522 | 16 | 330 | 0.0 | 0.0 | 0.00 | 0.03 | 0.03 | 89 | 1017.8 |
| 20260901010023 | 16 | 330 | 0.0 | 0.0 | 0.00 | 0.03 | 0.03 | 88 | 1017.7 |
| 20260901004523 | 16 | 330 | 0.0 | 0.0 | 0.00 | 0.03 | 0.03 | 88 | 1017.5 |
| 20260901003023 | 17 | 330 | 0.0 | 0.0 | 0.00 | 0.03 | 0.03 | 89 | 1017.7 |
| 20260901001523 | 17 | 330 | 0.0 | 0.0 | 0.00 | 0.03 | 0.03 | 88 | 1017.8 |
| 20260901000717 | 17 | 330 | 0.0 | 0.0 | 0.00 | 0.03 | 0.03 | 87 | 1017.5 |
| 20260831234523 | 17 | 330 | 0.0 | 0.0 | 0.00 | 0.03 | 0.03 | 86 | 1017.7 |
| 20260831233023 | 17 | 330 | 0.0 | 0.0 | 0.00 | 0.05 | 0.03 | 84 | 1017.7 |
| 20260831231522 | 18 | 330 | 0.0 | 0.0 | 0.00 | 0.08 | 0.03 | 81 | 1017.8 |
| 20260831230022 | 18 | 330 | 0.0 | 0.0 | 0.00 | 0.08 | 0.03 | 81 | 1017.8 |
| 20260831224522 | 19 | 330 | 0.0 | 0.0 | 0.00 | 0.08 | 0.03 | 79 | 1017.9 |
| 20260831223021 | 20 | 330 | 0.0 | 0.0 | 0.00 | 0.08 | 0.03 | 76 | 1018.1 |
| 20260831221523 | 20 | 330 | 0.0 | 0.0 | 0.00 | 0.08 | 0.03 | 73 | 1017.9 |
| 20260831220022 | 21 | 330 | 0.0 | 0.0 | 0.00 | 0.08 | 0.03 | 72 | 1017.8 |
| 20260831214518 | 21 | 330 | 0.0 | 0.0 | 0.00 | 0.08 | 0.03 | 68 | 1017.9 |
| 20260831213016 | 22 | 330 | 0.0 | 3.2 | 0.00 | 0.08 | 0.03 | 65 | 1017.8 |
| 20260831211515 | 22 | 24 | 0.0 | 4.8 | 0.00 | 0.08 | 0.03 | 64 | 1017.9 |
| 20260831210013 | 22 | 50 | 0.0 | 0.0 | 0.00 | 0.08 | 0.03 | 61 | 1017.9 |
| 20260831204513 | 23 | 154 | 0.0 | 0.0 | 0.00 | 0.08 | 0.03 | 54 | 1017.9 |
| 20260831203013 | 23 | 323 | 0.0 | 0.0 | 0.00 | 0.08 | 0.03 | 58 | 1018.1 |
| 20260831201511 | 23 | 317 | 0.0 | 3.2 | 0.00 | 0.08 | 0.03 | 56 | 1018.2 |
| 20260831200013 | 23 | 254 | 0.0 | 9.7 | 0.00 | 0.08 | 0.03 | 47 | 1018.3 |
| 20260831194508 | 23 | 307 | 0.0 | 4.8 | 0.00 | 0.08 | 0.03 | 50 | 1018.4 |
| 20260831193007 | 23 | 14 | 1.6 | 9.7 | 0.00 | 0.08 | 0.03 | 50 | 1018.4 |
| 20260831191508 | 24 | 163 | 1.6 | 8.0 | 0.00 | 0.08 | 0.03 | 50 | 1018.3 |
| 20260831190007 | 24 | 211 | 1.6 | 11.3 | 0.00 | 0.08 | 0.03 | 59 | 1018.3 |
| 20260831184506 | 25 | 182 | 0.0 | 9.7 | 0.00 | 0.08 | 0.03 | 58 | 1018.3 |
| 20260831183008 | 23 | 192 | 1.6 | 8.0 | 0.00 | 0.08 | 0.03 | 60 | 1018.5 |
| 20260831181506 | 23 | 173 | 0.0 | 3.2 | 0.00 | 0.08 | 0.03 | 61 | 1018.8 |
| 20260831180003 | 23 | 173 | 0.0 | 4.8 | 0.00 | 0.08 | 0.03 | 62 | 1018.9 |
| 20260831174502 | 24 | 177 | 1.6 | 4.8 | 0.00 | 0.08 | 0.03 | 53 | 1019.0 |
| 20260831173002 | 24 | 179 | 1.6 | 8.0 | 0.00 | 0.08 | 0.03 | 57 | 1018.8 |
| 20260831171502 | 24 | 192 | 1.6 | 8.0 | 0.00 | 0.08 | 0.03 | 61 | 1018.9 |
| 20260831170001 | 23 | 187 | 4.8 | 14.5 | 0.00 | 0.08 | 0.03 | 57 | 1019.3 |
| 20260831165149 | 24 | 185 | 0.0 | 11.3 | 0.00 | 0.08 | 0.03 | 58 | 1019.4 |
| 20260831162959 | 24 | 355 | 0.0 | 6.4 | 0.00 | 0.08 | 0.03 | 55 | 1019.5 |
| 20260831161501 | 24 | 169 | 0.0 | 3.2 | 0.00 | 0.08 | 0.03 | 53 | 1019.6 |
| 20260831160000 | 23 | 303 | 0.0 | 6.4 | 0.00 | 0.08 | 0.03 | 61 | 1019.7 |
| 20260831154502 | 23 | 233 | 0.0 | 4.8 | 0.00 | 0.08 | 0.03 | 59 | 1019.8 |
| 20260831152959 | 22 | 11 | 0.0 | 6.4 | 0.00 | 0.08 | 0.03 | 66 | 1019.9 |
| 20260831151458 | 21 | 168 | 0.0 | 6.4 | 0.00 | 0.08 | 0.03 | 68 | 1019.9 |
| 20260831145957 | 21 | 195 | 0.0 | 0.0 | 0.00 | 0.08 | 0.03 | 66 | 1019.8 |
| 20260831144457 | 21 | 255 | 0.0 | 0.0 | 0.00 | 0.08 | 0.03 | 76 | 1019.8 |
| 20260831142956 | 20 | 182 | 0.0 | 0.0 | 0.00 | 0.08 | 0.03 | 79 | 1020.1 |
| 20260831142208 | 20 | 182 | 0.0 | 8.0 | 0.00 | 0.08 | 0.03 | 77 | 1020.1 |
| 20260831135954 | 19 | 297 | 0.0 | 1.6 | 0.00 | 0.08 | 0.03 | 86 | 1020.0 |
| 20260831134453 | 17 | 304 | 0.0 | 0.0 | 0.00 | 0.08 | 0.03 | 91 | 1019.9 |
| 20260831134351 | 16 | 298 | 0.0 | 0.0 | 0.00 | 0.08 | 0.03 | 98 | 1020.1 |
| 20260831132153 | 15 | 299 | 0.0 | 0.0 | 0.00 | 0.08 | 0.03 | 99 | 1019.9 |
| 20260831125950 | 13 | 299 | 0.0 | 0.0 | 0.00 | 0.08 | 0.03 | 99 | 1020.1 |
| 20260831124449 | 12 | 299 | 0.0 | 0.0 | 0.00 | 0.08 | 0.03 | 98 | 1020.2 |
| 20260831122942 | 11 | 299 | 0.0 | 0.0 | 0.00 | 0.08 | 0.03 | 98 | 1020.1 |
| 20260831121441 | 11 | 299 | 0.0 | 0.0 | 0.00 | 0.08 | 0.03 | 97 | 1020.3 |
| 20260831115940 | 11 | 298 | 0.0 | 0.0 | 0.00 | 0.08 | 0.03 | 96 | 1020.5 |
| 20260831114442 | 11 | 299 | 0.0 | 0.0 | 0.00 | 0.08 | 0.03 | 96 | 1020.6 |
| 20260831112941 | 11 | 299 | 0.0 | 0.0 | 0.00 | 0.08 | 0.03 | 95 | 1020.6 |
| 20260831111440 | 11 | 299 | 0.0 | 0.0 | 0.00 | 0.08 | 0.03 | 95 | 1020.3 |
| 20260831105942 | 12 | 299 | 0.0 | 0.0 | 0.00 | 0.08 | 0.03 | 96 | 1020.3 |
| 20260831104442 | 12 | 299 | 0.0 | 0.0 | 0.00 | 0.08 | 0.03 | 97 | 1020.2 |
| 20260831102940 | 12 | 299 | 0.0 | 0.0 | 0.00 | 0.08 | 0.03 | 97 | 1020.1 |
| 20260831101441 | 12 | 299 | 0.0 | 0.0 | 0.00 | 0.08 | 0.03 | 97 | 1020.0 |
| 20260831095940 | 12 | 299 | 0.0 | 0.0 | 0.00 | 0.08 | 0.03 | 97 | 1020.0 |
| 20260831095838 | 12 | 298 | 0.0 | 0.0 | 0.00 | 0.08 | 0.03 | 97 | 1019.9 |
| 20260831092939 | 12 | 298 | 0.0 | 0.0 | 0.00 | 0.08 | 0.03 | 97 | 1019.7 |
| 20260831091437 | 12 | 298 | 0.0 | 0.0 | 0.00 | 0.08 | 0.03 | 96 | 1019.6 |